Pierceville, KS

3:28 PM CST on January 19, 2017 (GMT -0600)
Garden City Regional

Weather History for KGCK - May, 2014

Change the Weather History Date:

Monday, May 26, 2014

  Actual Average Record
Temperature  
Mean Temperature 67 °F 66 °F  
Max Temperature 78 °F 79 °F 106 °F (1953)
Min Temperature 55 °F 54 °F 33 °F (1992)
Degree Days  
Heating Degree Days 0 2  
Month to date heating degree days 116 120  
Since 1 July heating degree days 5387 5182  
Cooling Degree Days 2 4  
Month to date cooling degree days 72 55  
Year to date cooling degree days 93 67  
Growing Degree Days 16 (Base 50)    
Moisture  
Dew Point 53 °F    
Average Humidity 65    
Maximum Humidity 93    
Minimum Humidity 36    
Precipitation  
Precipitation 0.05 in 0.11 in 0.55 in (1964)
Month to date precipitation 0.69 2.33  
Year to date precipitation 1.36 6.39  
Sea Level Pressure  
Sea Level Pressure 29.92 in    
Wind  
Wind Speed 6 mph (SSE)    
Max Wind Speed 16 mph    
Max Gust Speed 22 mph    
Visibility 9 miles    
Events Rain , Thunderstorm    
T = Trace of Precipitation, MM = Missing Value Source: NWS Daily Summary

Daily Weather History Graph

Daily Weather History Graph

Search for Another Location

Airport or City:

Trip Planner

Search our weather history database for the weather conditions in past years. The results will help you decide how hot, cold, wet, or windy it might be!

Date:

Astronomy

May. 26, 2014 Rise Set
Actual Time 6:24 AM CDT 8:55 PM CDT
Civil Twilight 5:54 AM CDT 9:25 PM CDT
Nautical Twilight 5:16 AM CDT 10:03 PM CDT
Astronomical Twilight 4:35 AM CDT 10:45 PM CDT
Moon 5:05 AM CDT (5/26) 7:01 PM CDT (5/26)
Length of Visible Light 15h 31m
Length of Day
14h 30m
Waning Crescent, 5% of the Moon is Illuminated
May 26
Waning Crescent
May 28
New
Jun 5
First Quarter
Jun 12
Full
Jun 19
Last Quarter

Hourly Weather History & Observations

Time (CDT) Temp. Dew Point Humidity Pressure Visibility Wind Dir Wind Speed Gust Speed Precip Events Conditions
12:54 AM 57.9 °F 54.0 °F 87% 29.91 in 10.0 mi South 6.9 mph - N/A   Clear
1:54 AM 59.0 °F 54.0 °F 83% 29.91 in 10.0 mi SSE 6.9 mph - N/A   Clear
2:54 AM 57.0 °F 53.1 °F 87% 29.90 in 10.0 mi SSE 6.9 mph - N/A   Clear
3:54 AM 55.9 °F 53.1 °F 90% 29.89 in 10.0 mi SSW 8.1 mph - N/A   Clear
4:54 AM 55.9 °F 53.1 °F 90% 29.90 in 10.0 mi SSW 6.9 mph - N/A   Clear
5:54 AM 57.0 °F 53.1 °F 87% 29.89 in 10.0 mi SE 6.9 mph - N/A   Clear
6:54 AM 55.0 °F 53.1 °F 93% 29.90 in 7.0 mi SE 4.6 mph - N/A   Clear
7:54 AM 57.0 °F 54.0 °F 89% 29.91 in 6.0 mi Calm Calm - N/A   Clear
8:54 AM 62.1 °F 57.0 °F 84% 29.92 in 8.0 mi SSE 3.5 mph - N/A   Clear
9:54 AM 64.9 °F 57.0 °F 75% 29.94 in 9.0 mi Calm Calm - N/A   Overcast
10:54 AM 68.0 °F 57.0 °F 68% 29.94 in 9.0 mi Variable 3.5 mph - N/A   Clear
11:51 AM 69.8 °F 55.4 °F 60% 30.03 in 10.0 mi SSE 10.4 mph - N/A Thunderstorm Overcast
11:54 AM 69.1 °F 57.0 °F 65% 29.96 in 10.0 mi SSE 10.4 mph - N/A Thunderstorm Overcast
12:36 PM 64.9 °F 61.0 °F 87% 30.03 in 2.5 mi South 8.1 mph - 0.05 in Rain Light Rain
12:43 PM 64.9 °F 61.0 °F 87% 30.02 in 7.0 mi South 5.8 mph - 0.05 in Rain Light Rain
12:54 PM 66.0 °F 59.0 °F 78% 29.96 in 9.0 mi SW 6.9 mph - 0.05 in Rain Light Rain
1:54 PM 71.1 °F 53.1 °F 53% 29.94 in 10.0 mi South 4.6 mph - 0.00 in   Clear
2:54 PM 73.9 °F 53.1 °F 48% 29.90 in 10.0 mi South 9.2 mph - N/A   Clear
3:54 PM 73.9 °F 51.1 °F 45% 29.88 in 10.0 mi South 8.1 mph - N/A   Mostly Cloudy
4:54 PM 77.0 °F 50.0 °F 39% 29.86 in 10.0 mi South 9.2 mph - N/A   Scattered Clouds
5:54 PM 77.0 °F 48.0 °F 36% 29.84 in 10.0 mi SSE 8.1 mph 16.1 mph N/A   Scattered Clouds
6:54 PM 75.0 °F 46.0 °F 36% 29.86 in 10.0 mi SSW 12.7 mph - N/A   Overcast
7:54 PM 73.0 °F 46.9 °F 39% 29.88 in 10.0 mi SSW 10.4 mph - N/A   Overcast
8:54 PM 70.0 °F 50.0 °F 49% 29.89 in 10.0 mi South 4.6 mph - N/A   Overcast
9:54 PM 69.1 °F 50.0 °F 51% 29.90 in 10.0 mi SE 4.6 mph - N/A   Overcast
10:54 PM 68.0 °F 50.0 °F 52% 29.92 in 10.0 mi SE 5.8 mph - N/A   Mostly Cloudy
11:54 PM 66.9 °F 51.1 °F 57% 29.91 in 10.0 mi SE 6.9 mph - N/A   Overcast